Brownwood, TX

6:31 PM CDT on May 22, 2017 (GMT -0500)
Brownwood Regional

Weather History for KBWD - February, 2013

Change the Weather History Date:

Monday, February 18, 2013

  Actual Average (KABI) Record (KABI)
Temperature  
Mean Temperature 60 °F -  
Max Temperature 73 °F 59 °F 85 °F (1986)
Min Temperature 46 °F 37 °F 10 °F (1936)
Degree Days  
Heating Degree Days 6    
Growing Degree Days 10 (Base 50)    
Moisture  
Dew Point 37 °F    
Average Humidity 47    
Maximum Humidity 77    
Minimum Humidity 11    
Precipitation  
Precipitation 0.00 in - - ()
Sea Level Pressure  
Sea Level Pressure 29.92 in    
Wind  
Wind Speed 15 mph (WSW)    
Max Wind Speed 24 mph    
Max Gust Speed 33 mph    
Visibility 10 miles    
Events      
Averages and records for this station are not official NWS values.
T = Trace of Precipitation, MM = Missing Value Source: NWS Daily Summary

Daily Weather History Graph

Daily Weather History Graph

Search for Another Location

Airport or City:

Trip Planner

Search our weather history database for the weather conditions in past years. The results will help you decide how hot, cold, wet, or windy it might be!

Date:

Astronomy

Feb. 18, 2013 Rise Set
Actual Time 7:14 AM CST 6:25 PM CST
Civil Twilight 6:49 AM CST 6:50 PM CST
Nautical Twilight 6:21 AM CST 7:18 PM CST
Astronomical Twilight 5:52 AM CST 7:46 PM CST
Moon 12:22 PM CST (2/18) 1:45 AM CST (2/18)
Length of Visible Light 12h 00m
Length of Day
11h 10m
First Quarter, 58% of the Moon is Illuminated
Feb 18
First Quarter
Feb 25
Full
Mar 4
Last Quarter
Mar 11
New
Mar 19
First Quarter

Hourly Weather History & Observations

Time (CST) Temp. Windchill Dew Point Humidity Pressure Visibility Wind Dir Wind Speed Gust Speed Precip Events Conditions
12:15 AM 55.4 °F - 44.6 °F 67% 29.87 in 10.0 mi South 13.8 mph 18.4 mph N/A   Scattered Clouds
12:35 AM 55.4 °F - 46.4 °F 72% 29.86 in 10.0 mi South 15.0 mph 19.6 mph N/A   Scattered Clouds
12:55 AM 55.4 °F - 46.4 °F 72% 29.86 in 10.0 mi South 13.8 mph - N/A   Scattered Clouds
1:15 AM 55.4 °F - 46.4 °F 72% 29.85 in 10.0 mi South 13.8 mph 18.4 mph N/A   Partly Cloudy
1:35 AM 55.4 °F - 46.4 °F 72% 29.85 in 10.0 mi South 16.1 mph 20.7 mph N/A   Mostly Cloudy
1:55 AM 57.2 °F - 48.2 °F 72% 29.84 in 10.0 mi South 16.1 mph 25.3 mph N/A   Overcast
2:15 AM 57.2 °F - 48.2 °F 72% 29.85 in 10.0 mi South 15.0 mph 19.6 mph N/A   Overcast
2:35 AM 57.2 °F - 48.2 °F 72% 29.85 in 10.0 mi South 13.8 mph 20.7 mph N/A   Overcast
2:55 AM 57.2 °F - 50.0 °F 77% 29.84 in 10.0 mi South 15.0 mph 21.9 mph N/A   Overcast
3:15 AM 57.2 °F - 50.0 °F 77% 29.84 in 10.0 mi South 12.7 mph 17.3 mph N/A   Overcast
3:35 AM 59.0 °F - 50.0 °F 72% 29.83 in 10.0 mi South 18.4 mph - N/A   Overcast
3:55 AM 59.0 °F - 50.0 °F 72% 29.83 in 10.0 mi South 15.0 mph 21.9 mph N/A   Overcast
4:15 AM 59.0 °F - 50.0 °F 72% 29.83 in 10.0 mi South 13.8 mph 17.3 mph N/A   Overcast
4:35 AM 59.0 °F - 50.0 °F 72% 29.83 in 10.0 mi South 13.8 mph - N/A   Overcast
4:55 AM 59.0 °F - 50.0 °F 72% 29.83 in 10.0 mi South 17.3 mph 24.2 mph N/A   Overcast
5:15 AM 59.0 °F - 50.0 °F 72% 29.83 in 10.0 mi South 15.0 mph - N/A   Overcast
5:35 AM 59.0 °F - 50.0 °F 72% 29.83 in 10.0 mi South 16.1 mph 21.9 mph N/A   Overcast
5:55 AM 59.0 °F - 50.0 °F 72% 29.83 in 10.0 mi South 16.1 mph 19.6 mph N/A   Overcast
6:15 AM 59.0 °F - 50.0 °F 72% 29.83 in 10.0 mi South 8.1 mph - N/A   Overcast
6:35 AM 59.0 °F - 50.0 °F 72% 29.84 in 10.0 mi SSW 11.5 mph - N/A   Overcast
6:55 AM 59.0 °F - 50.0 °F 72% 29.85 in 10.0 mi SSW 9.2 mph - N/A   Overcast
7:15 AM 59.0 °F - 50.0 °F 72% 29.84 in 10.0 mi SSW 15.0 mph - N/A   Overcast
7:35 AM 59.0 °F - 50.0 °F 72% 29.85 in 10.0 mi SSW 12.7 mph - N/A   Mostly Cloudy
7:55 AM 59.0 °F - 50.0 °F 72% 29.86 in 10.0 mi SSW 9.2 mph - N/A   Mostly Cloudy
8:15 AM 59.0 °F - 51.8 °F 77% 29.87 in 10.0 mi SSW 10.4 mph 16.1 mph N/A   Mostly Cloudy
8:35 AM 60.8 °F - 51.8 °F 72% 29.87 in 10.0 mi SSW 13.8 mph 18.4 mph N/A   Mostly Cloudy
8:55 AM 62.6 °F - 51.8 °F 68% 29.87 in 10.0 mi SSW 13.8 mph 23.0 mph N/A   Clear
9:15 AM 62.6 °F - 51.8 °F 68% 29.87 in 10.0 mi SSW 18.4 mph 25.3 mph N/A   Clear
9:35 AM 64.4 °F - 51.8 °F 64% 29.87 in 10.0 mi SSW 16.1 mph 23.0 mph N/A   Clear
9:55 AM 66.2 °F - 50.0 °F 56% 29.88 in 10.0 mi WSW 19.6 mph 27.6 mph N/A   Clear
10:15 AM 66.2 °F - 48.2 °F 52% 29.87 in 10.0 mi SW 23.0 mph 29.9 mph N/A   Clear
10:35 AM 68.0 °F - 48.2 °F 49% 29.88 in 10.0 mi WSW 15.0 mph 29.9 mph N/A   Clear
10:55 AM 68.0 °F - 44.6 °F 43% 29.88 in 10.0 mi WSW 19.6 mph 32.2 mph N/A   Clear
11:15 AM 71.6 °F - 41.0 °F 33% 29.88 in 10.0 mi West 17.3 mph 25.3 mph N/A   Clear
11:35 AM 71.6 °F - 35.6 °F 27% 29.88 in 10.0 mi West 21.9 mph 31.1 mph N/A   Clear
11:55 AM 71.6 °F - 33.8 °F 25% 29.88 in 9.0 mi West 19.6 mph 28.8 mph N/A   Clear
12:15 PM 71.6 °F - 32.0 °F 23% 29.88 in 10.0 mi West 21.9 mph 31.1 mph N/A   Clear
12:35 PM 73.4 °F - 28.4 °F 19% 29.88 in 10.0 mi West 18.4 mph 29.9 mph N/A   Clear
12:55 PM 73.4 °F - 24.8 °F 16% 29.87 in 10.0 mi West 21.9 mph 29.9 mph N/A   Clear
1:15 PM 73.4 °F - 19.4 °F 13% 29.87 in 10.0 mi West 19.6 mph 28.8 mph N/A   Clear
1:35 PM 73.4 °F - 17.6 °F 12% 29.87 in 10.0 mi West 24.2 mph 32.2 mph N/A   Clear
1:55 PM 73.4 °F - 15.8 °F 11% 29.86 in 10.0 mi WNW 21.9 mph 29.9 mph N/A   Clear
2:15 PM 73.4 °F - 15.8 °F 11% 29.86 in 10.0 mi West 24.2 mph 33.4 mph N/A   Clear
2:35 PM 73.4 °F - 15.8 °F 11% 29.87 in 10.0 mi West 20.7 mph 31.1 mph N/A   Clear
2:55 PM 73.4 °F - 15.8 °F 11% 29.87 in 10.0 mi West 20.7 mph 32.2 mph N/A   Clear
3:15 PM 71.6 °F - 19.4 °F 14% 29.88 in 10.0 mi NW 21.9 mph 29.9 mph N/A   Clear
3:35 PM 71.6 °F - 21.2 °F 15% 29.89 in 10.0 mi NW 21.9 mph 28.8 mph N/A   Clear
3:55 PM 69.8 °F - 23.0 °F 17% 29.90 in 10.0 mi NW 23.0 mph 29.9 mph N/A   Clear
4:15 PM 68.0 °F - 24.8 °F 20% 29.92 in 10.0 mi NW 19.6 mph 26.5 mph N/A   Clear
4:35 PM 66.2 °F - 24.8 °F 21% 29.93 in 10.0 mi NNW 23.0 mph 29.9 mph N/A   Clear
4:55 PM 66.2 °F - 24.8 °F 21% 29.94 in 10.0 mi North 19.6 mph 26.5 mph N/A   Clear
5:15 PM 64.4 °F - 26.6 °F 24% 29.95 in 10.0 mi North 13.8 mph 25.3 mph N/A   Clear
5:35 PM 64.4 °F - 26.6 °F 24% 29.97 in 10.0 mi NNW 17.3 mph 25.3 mph N/A   Clear
5:55 PM 62.6 °F - 26.6 °F 26% 29.98 in 10.0 mi North 17.3 mph 23.0 mph N/A   Clear
6:15 PM 60.8 °F - 26.6 °F 27% 30.00 in 10.0 mi North 16.1 mph 21.9 mph N/A   Clear
6:35 PM 59.0 °F - 26.6 °F 29% 30.01 in 10.0 mi NNW 13.8 mph 20.7 mph N/A   Clear
6:55 PM 59.0 °F - 26.6 °F 29% 30.02 in 10.0 mi North 11.5 mph - N/A   Clear
7:15 PM 57.2 °F - 26.6 °F 31% 30.04 in 10.0 mi North 10.4 mph 16.1 mph N/A   Partly Cloudy
7:35 PM 57.2 °F - 26.6 °F 31% 30.05 in 10.0 mi North 9.2 mph - N/A   Partly Cloudy
7:55 PM 55.4 °F - 28.4 °F 36% 30.06 in 10.0 mi North 6.9 mph - N/A   Clear
8:15 PM 55.4 °F - 28.4 °F 36% 30.07 in 10.0 mi North 10.4 mph - N/A   Clear
8:35 PM 53.6 °F - 28.4 °F 38% 30.09 in 10.0 mi NNW 4.6 mph - N/A   Clear
8:55 PM 53.6 °F - 28.4 °F 38% 30.09 in 10.0 mi North 10.4 mph - N/A   Mostly Cloudy
9:15 PM 53.6 °F - 28.4 °F 38% 30.09 in 10.0 mi North 11.5 mph - N/A   Overcast
9:35 PM 53.6 °F - 28.4 °F 38% 30.10 in 10.0 mi NNE 10.4 mph - N/A   Overcast
9:55 PM 51.8 °F - 28.4 °F 41% 30.11 in 10.0 mi North 9.2 mph - N/A   Overcast
10:15 PM 50.0 °F - 28.4 °F 43% 30.11 in 10.0 mi North 8.1 mph - N/A   Overcast
10:35 PM 50.0 °F - 28.4 °F 43% 30.12 in 10.0 mi NNE 5.8 mph - N/A   Overcast
10:55 PM 50.0 °F - 28.4 °F 43% 30.13 in 10.0 mi NNE 3.5 mph - N/A   Overcast
11:15 PM 50.0 °F - 28.4 °F 43% 30.13 in 10.0 mi Calm Calm - N/A   Overcast
11:35 PM 46.4 °F 44.3 °F 28.4 °F 50% 30.14 in 10.0 mi NE 4.6 mph - N/A   Overcast
11:55 PM 48.2 °F - 26.6 °F 43% 30.13 in 10.0 mi Calm Calm - N/A   Overcast